GALAXY 3C (G-3C)

Last updated on Thu Oct 30 2025 00:02:47 GMT+0000 (Coordinated Universal Time)

1 27445U 02030A 25302.45227094 -.00000141 00000+0 00000+0 0 9997 2 27445 3.1475 80.9635 0001731 69.4832 315.6005 1.00271644 44181
UTC large
Height (km)
Speed (km/s)
/
Latitude / Longitude
Inclination (degrees)
Orbital Period (minutes)
Azimuth
Elevation
Range (km)
Doppler Factor

Next 0 passes for location: London (51.5072 / 0.1276)

Sorry there are no passes over London.